Location: Albany
(35.0170°S, 117.8920°E)
Time: 01:54:55
(UTC+08:00)

Explorer 7 - Pass Details

Date: 25 January 2021
Orbit: 484 x 677 km, 50.3° (Epoch: 01 March)

Event Time Altitude Azimuth Distance (km) Brightness Sun altitude
Rises 21:35:37 0° 224° (SW) 2,907 12.0 -23.4°
Reaches altitude 10° 21:38:13 10° 214° (SSW) 1,962 10.7 -23.8°
Maximum altitude 21:42:13 31° 151° (SSE) 1,030 8.3 -24.3°
Enters shadow 21:42:40 30° 138° (SE) 1,041 8.2 -24.4°
Drops below altitude 10° 21:45:58 10° 87° (E) 1,837 - -24.8°
Sets 21:48:20 0° 76° (ENE) 2,691 - -25.1°
